Location: Andrea Ville Subdivision
(14.3485°N, 120.9580°E)
Time: 03:05:58
(UTC+00:00)

Cosmos 1707 Rocket - Pass Details

Date: 13 January 2026
Orbit: 599 x 623 km, 82.5° (Epoch: 16 February)

Event Time Altitude Azimuth Distance (km) Brightness Sun altitude
Rises 10:57:27 0° 175° (S) 2,869 7.2 -17.2°
Reaches altitude 10° 10:59:42 10° 171° (S) 1,961 6.2 -17.7°
Maximum altitude 11:03:57 56° 93° (E) 727 3.5 -18.7°
Enters shadow 11:05:26 36° 35° (NE) 966 4.1 -19.0°
